Time,TemperatureF,DewpointF,PressureIn,WindDirection,WindDirectionDegrees,WindSpeedMPH,WindSpeedGustMPH,Humidity,HourlyPrecipIn,Conditions,Clouds,dailyrainin,SoftwareType,DateUTC
2013-07-04 00:00:00,46.1,44.0,29.83,SE,141,0.0,0.0,91,0.00,,,0.09,weatherlink.com 1.10,2013-07-04 06:00:00,
2013-07-04 00:15:00,45.7,43.0,29.83,SE,141,0.0,1.0,90,0.00,,,0.00,weatherlink.com 1.10,2013-07-04 06:15:00,
2013-07-04 00:30:00,45.5,43.0,29.83,SE,141,0.0,0.0,91,0.00,,,0.00,weatherlink.com 1.10,2013-07-04 06:30:00,
2013-07-04 00:45:00,45.1,43.0,29.83,SE,138,0.0,1.0,91,0.00,,,0.00,weatherlink.com 1.10,2013-07-04 06:45:00,
2013-07-04 01:00:00,44.8,43.0,29.83,SE,138,0.0,0.0,92,0.00,,,0.00,weatherlink.com 1.10,2013-07-04 07:00:00,
2013-07-04 01:15:00,44.4,42.0,29.83,SE,138,0.0,0.0,92,0.00,,,0.00,weatherlink.com 1.10,2013-07-04 07:15:00,
2013-07-04 01:30:00,44.2,42.0,29.83,SE,138,0.0,0.0,93,0.00,,,0.00,weatherlink.com 1.10,2013-07-04 07:30:00,
2013-07-04 01:45:00,44.1,42.0,29.83,SE,138,0.0,0.0,92,0.00,,,0.00,weatherlink.com 1.10,2013-07-04 07:45:00,
2013-07-04 02:00:00,44.3,42.0,29.83,SE,138,0.0,0.0,91,0.00,,,0.00,weatherlink.com 1.10,2013-07-04 08:00:00,
2013-07-04 02:15:00,44.5,42.0,29.82,SE,138,0.0,0.0,89,0.00,,,0.00,weatherlink.com 1.10,2013-07-04 08:15:00,
2013-07-04 02:30:00,44.5,41.0,29.83,SE,138,0.0,0.0,88,0.00,,,0.00,weatherlink.com 1.10,2013-07-04 08:30:00,
2013-07-04 02:45:00,43.8,41.0,29.82,SE,138,0.0,0.0,90,0.00,,,0.00,weatherlink.com 1.10,2013-07-04 08:45:00,
2013-07-04 03:00:00,43.6,41.0,29.82,SE,138,0.0,0.0,91,0.00,,,0.00,weatherlink.com 1.10,2013-07-04 09:00:00,
2013-07-04 03:15:00,43.7,41.0,29.82,SE,138,0.0,0.0,90,0.00,,,0.00,weatherlink.com 1.10,2013-07-04 09:15:00,
2013-07-04 03:30:00,44.0,41.0,29.82,SE,137,1.0,1.0,90,0.00,,,0.00,weatherlink.com 1.10,2013-07-04 09:30:00,
2013-07-04 03:45:00,45.2,42.0,29.82,SE,137,0.0,1.0,88,0.00,,,0.00,weatherlink.com 1.10,2013-07-04 09:45:00,
2013-07-04 04:00:00,45.4,42.0,29.81,SE,137,0.0,1.0,87,0.00,,,0.00,weatherlink.com 1.10,2013-07-04 10:00:00,
2013-07-04 04:15:00,45.5,42.0,29.82,SE,137,0.0,1.0,86,0.00,,,0.00,weatherlink.com 1.10,2013-07-04 10:15:00,
2013-07-04 04:30:00,45.6,42.0,29.81,SE,137,0.0,1.0,86,0.00,,,0.00,weatherlink.com 1.10,2013-07-04 10:30:00,
2013-07-04 04:45:00,46.1,42.0,29.82,SE,137,0.0,1.0,85,0.00,,,0.00,weatherlink.com 1.10,2013-07-04 10:45:00,
2013-07-04 05:00:00,47.2,42.0,29.82,SE,137,0.0,1.0,83,0.00,,,0.00,weatherlink.com 1.10,2013-07-04 11:00:00,
2013-07-04 05:15:00,47.4,43.0,29.82,SE,137,1.0,1.0,84,0.00,,,0.00,weatherlink.com 1.10,2013-07-04 11:15:00,
2013-07-04 05:30:00,48.0,43.0,29.82,SE,136,1.0,1.0,82,0.00,,,0.00,weatherlink.com 1.10,2013-07-04 11:30:00,
2013-07-04 05:45:00,47.8,43.0,29.83,SE,135,1.0,1.0,82,0.00,,,0.00,weatherlink.com 1.10,2013-07-04 11:45:00,
2013-07-04 06:00:00,47.5,42.0,29.83,SE,136,0.0,1.0,82,0.00,,,0.00,weatherlink.com 1.10,2013-07-04 12:00:00,
2013-07-04 06:15:00,47.1,43.0,29.83,SE,136,0.0,1.0,85,0.00,,,0.00,weatherlink.com 1.10,2013-07-04 12:15:00,
2013-07-04 06:30:00,47.3,43.0,29.83,SE,135,0.0,1.0,85,0.00,,,0.00,weatherlink.com 1.10,2013-07-04 12:30:00,
2013-07-04 06:45:00,47.8,44.0,29.83,SE,135,0.0,1.0,86,0.00,,,0.00,weatherlink.com 1.10,2013-07-04 12:45:00,
2013-07-04 07:00:00,49.2,45.0,29.84,SE,136,0.0,1.0,85,0.00,,,0.00,weatherlink.com 1.10,2013-07-04 13:00:00,
2013-07-04 07:15:00,51.7,46.0,29.83,SE,136,0.0,1.0,82,0.00,,,0.00,weatherlink.com 1.10,2013-07-04 13:15:00,
2013-07-04 07:31:00,53.8,46.0,29.83,SE,136,0.0,1.0,76,0.00,,,0.00,weatherlink.com 1.10,2013-07-04 13:31:00,
2013-07-04 07:46:00,54.2,48.0,29.83,SE,136,0.0,0.0,80,0.00,,,0.00,weatherlink.com 1.10,2013-07-04 13:46:00,
2013-07-04 08:01:00,54.8,48.0,29.82,SE,136,0.0,1.0,78,0.00,,,0.00,weatherlink.com 1.10,2013-07-04 14:01:00,
2013-07-04 08:16:00,55.7,49.0,29.82,SE,136,0.0,0.0,79,0.00,,,0.00,weatherlink.com 1.10,2013-07-04 14:16:00,
2013-07-04 08:31:00,56.6,49.0,29.82,SE,141,0.0,1.0,77,0.00,,,0.00,weatherlink.com 1.10,2013-07-04 14:31:00,
2013-07-04 08:46:00,60.5,45.0,29.82,SE,139,0.0,3.0,57,0.00,,,0.00,weatherlink.com 1.10,2013-07-04 14:46:00,
2013-07-04 09:01:00,65.5,42.0,29.82,SE,143,0.0,3.0,43,0.00,,,0.00,weatherlink.com 1.10,2013-07-04 15:01:00,
2013-07-04 09:16:00,67.5,42.0,29.82,SE,132,1.0,5.0,39,0.00,,,0.00,weatherlink.com 1.10,2013-07-04 15:16:00,
2013-07-04 09:31:00,69.9,42.0,29.81,ESE,122,0.0,4.0,36,0.00,,,0.00,weatherlink.com 1.10,2013-07-04 15:31:00,
2013-07-04 09:46:00,71.9,42.0,29.81,SE,129,0.0,3.0,34,0.00,,,0.00,weatherlink.com 1.10,2013-07-04 15:46:00,
2013-07-04 10:01:00,70.4,41.0,29.81,SE,127,0.0,4.0,35,0.00,,,0.00,weatherlink.com 1.10,2013-07-04 16:01:00,
2013-07-04 10:16:00,71.7,39.0,29.80,SE,136,0.0,3.0,31,0.00,,,0.00,weatherlink.com 1.10,2013-07-04 16:16:00,
2013-07-04 10:31:00,71.6,39.0,29.79,ESE,123,0.0,3.0,31,0.00,,,0.00,weatherlink.com 1.10,2013-07-04 16:31:00,
2013-07-04 10:46:00,71.9,37.0,29.79,ESE,123,1.0,2.0,28,0.00,,,0.00,weatherlink.com 1.10,2013-07-04 16:46:00,
2013-07-04 11:01:00,70.7,42.0,29.79,SE,130,0.0,2.0,36,0.00,,,0.00,weatherlink.com 1.10,2013-07-04 17:01:00,
2013-07-04 11:16:00,71.1,40.0,29.78,SSE,158,0.0,2.0,32,0.00,,,0.00,weatherlink.com 1.10,2013-07-04 17:16:00,
2013-07-04 11:31:00,74.9,41.0,29.78,SE,143,0.0,1.0,29,0.00,,,0.00,weatherlink.com 1.10,2013-07-04 17:31:00,
2013-07-04 11:46:00,72.5,41.0,29.78,SE,135,0.0,3.0,32,0.00,,,0.00,weatherlink.com 1.10,2013-07-04 17:46:00,
2013-07-04 12:01:00,74.1,42.0,29.77,SE,141,0.0,5.0,31,0.00,,,0.00,weatherlink.com 1.10,2013-07-04 18:01:00,
2013-07-04 12:16:00,73.1,43.0,29.77,SSE,166,1.0,5.0,34,0.00,,,0.00,weatherlink.com 1.10,2013-07-04 18:16:00,
2013-07-04 12:31:00,74.2,42.0,29.77,SSE,155,2.0,6.0,32,0.00,,,0.00,weatherlink.com 1.10,2013-07-04 18:31:00,
2013-07-04 12:46:00,74.1,42.0,29.76,SE,134,0.0,2.0,32,0.00,,,0.00,weatherlink.com 1.10,2013-07-04 18:46:00,
2013-07-04 13:01:00,74.4,43.0,29.76,SE,130,0.0,2.0,32,0.00,,,0.00,weatherlink.com 1.10,2013-07-04 19:01:00,
2013-07-04 13:16:00,72.6,45.0,29.76,SE,143,1.0,8.0,37,0.00,,,0.00,weatherlink.com 1.10,2013-07-04 19:16:00,
2013-07-04 13:31:00,71.9,42.0,29.76,SE,135,0.0,5.0,34,0.00,,,0.00,weatherlink.com 1.10,2013-07-04 19:31:00,
2013-07-04 13:47:00,71.4,44.0,29.76,SE,138,0.0,3.0,38,0.00,,,0.00,weatherlink.com 1.10,2013-07-04 19:47:00,
2013-07-04 14:02:00,72.4,45.0,29.76,South,184,3.0,4.0,38,0.00,,,0.00,weatherlink.com 1.10,2013-07-04 20:02:00,
2013-07-04 14:17:00,73.9,42.0,29.75,SSE,158,2.0,5.0,32,0.00,,,0.00,weatherlink.com 1.10,2013-07-04 20:17:00,
2013-07-04 14:32:00,73.3,42.0,29.75,SE,136,0.0,6.0,33,0.00,,,0.00,weatherlink.com 1.10,2013-07-04 20:32:00,
2013-07-04 14:47:00,72.9,44.0,29.75,SSE,159,0.0,4.0,35,0.00,,,0.00,weatherlink.com 1.10,2013-07-04 20:47:00,
2013-07-04 15:02:00,72.1,40.0,29.76,SE,137,0.0,2.0,31,0.00,,,0.00,weatherlink.com 1.10,2013-07-04 21:02:00,
2013-07-04 15:17:00,72.3,42.0,29.75,SSE,154,0.0,1.0,33,0.00,,,0.00,weatherlink.com 1.10,2013-07-04 21:17:00,
2013-07-04 15:32:00,71.8,45.0,29.75,SE,139,0.0,2.0,38,0.00,,,0.00,weatherlink.com 1.10,2013-07-04 21:32:00,
2013-07-04 15:47:00,71.0,44.0,29.75,SSE,163,2.0,5.0,38,0.00,,,0.00,weatherlink.com 1.10,2013-07-04 21:47:00,
2013-07-04 16:02:00,72.0,46.0,29.75,South,191,1.0,8.0,39,0.00,,,0.00,weatherlink.com 1.10,2013-07-04 22:02:00,
2013-07-04 16:17:00,72.6,46.0,29.75,SE,125,1.0,7.0,39,0.00,,,0.00,weatherlink.com 1.10,2013-07-04 22:17:00,
2013-07-04 16:32:00,70.8,44.0,29.75,South,188,2.0,4.0,38,0.00,,,0.00,weatherlink.com 1.10,2013-07-04 22:32:00,
2013-07-04 16:47:00,71.1,43.0,29.74,South,179,3.0,6.0,37,0.00,,,0.00,weatherlink.com 1.10,2013-07-04 22:47:00,
2013-07-04 17:02:00,72.3,45.0,29.74,SSE,168,2.0,8.0,38,0.00,,,0.00,weatherlink.com 1.10,2013-07-04 23:02:00,
2013-07-04 17:17:00,69.7,41.0,29.74,SSE,159,1.0,5.0,36,0.00,,,0.00,weatherlink.com 1.10,2013-07-04 23:17:00,
2013-07-04 17:32:00,68.4,43.0,29.74,SE,140,0.0,2.0,40,0.00,,,0.00,weatherlink.com 1.10,2013-07-04 23:32:00,
2013-07-04 17:47:00,67.3,45.0,29.74,SE,141,0.0,1.0,44,0.00,,,0.00,weatherlink.com 1.10,2013-07-04 23:47:00,
2013-07-04 18:02:00,66.7,44.0,29.74,SE,141,0.0,0.0,44,0.00,,,0.00,weatherlink.com 1.10,2013-07-05 00:02:00,
2013-07-04 18:17:00,65.6,44.0,29.75,SE,136,0.0,2.0,46,0.00,,,0.00,weatherlink.com 1.10,2013-07-05 00:17:00,
2013-07-04 18:32:00,64.2,43.0,29.75,South,177,2.0,8.0,46,0.00,,,0.00,weatherlink.com 1.10,2013-07-05 00:32:00,
2013-07-04 18:47:00,63.8,43.0,29.74,SSE,153,0.0,5.0,47,0.00,,,0.00,weatherlink.com 1.10,2013-07-05 00:47:00,
2013-07-04 19:02:00,63.7,43.0,29.74,SSE,163,0.0,2.0,48,0.00,,,0.00,weatherlink.com 1.10,2013-07-05 01:02:00,
2013-07-04 19:17:00,63.3,45.0,29.75,SSE,155,0.0,0.0,52,0.00,,,0.00,weatherlink.com 1.10,2013-07-05 01:17:00,
2013-07-04 19:32:00,62.9,46.0,29.75,SSE,155,0.0,0.0,55,0.00,,,0.00,weatherlink.com 1.10,2013-07-05 01:32:00,
2013-07-04 19:47:00,62.0,46.0,29.75,SSE,155,0.0,0.0,57,0.00,,,0.00,weatherlink.com 1.10,2013-07-05 01:47:00,
2013-07-04 20:02:00,61.5,47.0,29.75,SSE,155,0.0,0.0,59,0.00,,,0.00,weatherlink.com 1.10,2013-07-05 02:02:00,
2013-07-04 20:17:00,61.8,41.0,29.75,SSE,148,1.0,1.0,46,0.00,,,0.00,weatherlink.com 1.10,2013-07-05 02:17:00,
2013-07-04 20:32:00,62.1,41.0,29.74,SSE,162,0.0,6.0,46,0.00,,,0.00,weatherlink.com 1.10,2013-07-05 02:32:00,
2013-07-04 20:48:00,60.2,42.0,29.75,SSE,147,0.0,0.0,51,0.00,,,0.00,weatherlink.com 1.10,2013-07-05 02:48:00,
2013-07-04 21:02:00,58.5,41.0,29.75,SSE,147,0.0,0.0,53,0.00,,,0.00,weatherlink.com 1.10,2013-07-05 03:02:00,
2013-07-04 21:17:00,56.7,44.0,29.75,SSE,147,0.0,0.0,62,0.00,,,0.00,weatherlink.com 1.10,2013-07-05 03:17:00,
2013-07-04 21:32:00,55.2,44.0,29.75,SSE,147,0.0,0.0,66,0.00,,,0.00,weatherlink.com 1.10,2013-07-05 03:32:00,
2013-07-04 21:47:00,53.9,43.0,29.76,SSE,147,0.0,0.0,67,0.00,,,0.00,weatherlink.com 1.10,2013-07-05 03:47:00,
2013-07-04 22:02:00,52.7,43.0,29.76,SSE,147,0.0,0.0,69,0.00,,,0.00,weatherlink.com 1.10,2013-07-05 04:02:00,
2013-07-04 22:17:00,51.4,42.0,29.76,SSE,147,0.0,0.0,71,0.00,,,0.00,weatherlink.com 1.10,2013-07-05 04:17:00,
2013-07-04 22:32:00,50.3,42.0,29.76,SSE,147,0.0,0.0,74,0.00,,,0.00,weatherlink.com 1.10,2013-07-05 04:32:00,
2013-07-04 22:47:00,50.2,41.0,29.76,SSE,147,0.0,0.0,72,0.00,,,0.00,weatherlink.com 1.10,2013-07-05 04:47:00,
2013-07-04 23:02:00,49.6,42.0,29.76,SSE,147,0.0,0.0,74,0.00,,,0.00,weatherlink.com 1.10,2013-07-05 05:02:00,
2013-07-04 23:17:00,48.7,41.0,29.75,SSE,147,0.0,0.0,75,0.00,,,0.00,weatherlink.com 1.10,2013-07-05 05:17:00,
2013-07-04 23:32:00,48.2,42.0,29.75,SSE,147,0.0,0.0,79,0.00,,,0.00,weatherlink.com 1.10,2013-07-05 05:32:00,
2013-07-04 23:47:00,48.1,41.0,29.75,SSE,147,0.0,0.0,77,0.00,,,0.00,weatherlink.com 1.10,2013-07-05 05:47:00,